Wind_Speed
11 11 11 11 10 10 11 11 11 11 11 11 11 11 11 11 12 12 12 11 11 11 10 10 10 11 10 10 11 11 11 12 12 12 12 13 13 14 15 15 15 16 16 17
11 12 12 11 11 11 11 11 11 12 11 12 12 11 11 11 12 11 12 11 11 11 11 11 11 11 11 12 12 13 13 13 14 14 15 15 15 16 17 17 18 18 18 19
11 12 12 12 11 11 11 11 12 12 11 12 12 12 12 12 11 11 11 11 11 11 12 12 12 12 12 13 13 14 15 16 16 17 17 17 18 18 19 19 20 20 21 21
13 14 14 12 13 13 13 12 12 12 12 12 12 13 13 12 12 12 12 12 12 12 13 13 13 14 14 14 15 16 17 18 19 19 19 20 20 21 21 22 22 23 24 24
15 15 14 14 13 13 14 14 13 13 13 13 13 13 13 13 13 13 13 13 13 13 14 14 15 15 16 16 17 18 18 19 20 20 21 22 22 23 24 24 25 25 26 26
16 15 15 14 14 14 14 15 14 13 13 13 13 13 14 14 14 14 14 14 14 14 15 15 16 16 17 18 19 20 20 21 22 23 23 24 25 25 26 27 27 28 28 28
16 16 15 15 15 15 15 14 14 14 14 13 13 13 14 14 15 15 15 15 15 16 16 17 18 18 19 20 20 21 22 23 24 25 25 26 27 28 29 29 30 30 31 31
18 17 16 16 16 16 15 16 15 14 14 14 15 14 15 15 16 16 16 17 17 18 18 19 20 20 21 22 22 23 24 25 26 27 27 28 29 30 31 31 32 33 33 34
19 19 18 18 18 17 16 16 16 16 16 16 16 16 16 16 17 17 18 18 19 20 21 21 22 22 23 24 25 25 26 27 27 28 29 30 31 32 33 34 35 35 36 36
19 19 19 19 18 18 18 17 17 17 17 17 17 17 17 17 18 18 19 20 21 22 23 23 24 25 26 26 27 28 29 29 30 30 31 32 33 34 35 36 37 38 39 40
20 20 20 19 19 19 19 19 18 19 19 18 18 18 19 19 20 20 21 22 23 24 25 26 26 27 28 29 29 30 31 31 32 32 33 34 36 37 38 38 39 40 41 42
21 21 21 21 20 20 20 20 20 20 21 21 21 21 21 21 21 22 23 24 25 26 27 27 28 29 30 31 31 32 33 33 34 34 35 37 38 39 40 41 42 43 43 43
23 23 23 22 22 22 22 21 21 21 22 21 22 22 23 23 23 24 24 26 27 28 28 29 30 31 32 32 33 34 35 35 36 37 38 39 40 41 42 42 43 43 44 45
23 23 24 23 23 23 23 23 23 22 22 22 23 23 23 24 25 26 27 27 28 29 30 31 32 33 34 34 35 36 36 37 38 39 40 41 42 43 44 44 45 45 46 47
24 24 24 24 24 24 25 25 25 24 24 25 25 25 26 26 27 28 29 30 31 32 33 33 34 35 36 37 37 38 38 39 41 42 43 44 44 45 46 46 47 47 48 49
26 26 25 25 25 25 26 26 26 26 26 27 27 27 28 29 30 31 31 32 33 33 34 35 37 37 38 38 39 39 40 42 43 44 45 46 47 47 48 48 49 50 51 52
28 27 27 27 27 27 28 28 28 28 28 29 29 30 30 31 32 33 34 34 35 36 37 38 38 39 40 40 41 42 43 44 45 46 47 48 49 49 50 50 51 52 52 53
28 28 28 28 29 29 30 30 30 31 31 32 32 33 33 34 34 35 35 36 37 38 39 40 40 41 41 42 43 44 45 46 47 48 49 50 50 51 51 52 52 53 54 54
29 29 29 30 30 31 32 32 33 33 33 34 34 35 35 36 36 37 37 38 39 40 41 41 42 43 43 44 45 46 47 48 49 49 50 51 51 52 53 53 54 54 54 54
30 30 31 31 31 32 33 34 34 35 35 35 36 36 37 38 39 39 40 41 41 42 43 43 44 44 45 45 46 47 48 49 49 50 51 51 52 52 53 53 54 54 54 54
31 31 32 32 33 33 34 35 35 36 36 37 37 38 39 40 40 41 41 42 42 43 43 44 44 45 46 47 47 48 48 49 50 50 50 51 52 52 53 53 53 54 54 54
31 31 31 32 33 33 34 35 36 37 37 38 39 40 40 41 41 41 42 42 42 43 44 45 45 45 46 47 47 48 49 49 49 50 50 51 51 52 52 52 52 52 52 53
31 32 32 33 33 34 34 35 36 37 38 38 39 39 39 40 40 41 41 42 42 43 44 44 45 45 46 47 47 48 48 49 49 49 50 50 51 52 51 51 51 51 51 51
32 32 32 33 34 34 35 35 36 37 37 38 38 39 40 40 40 41 41 42 43 43 44 44 45 45 46 46 47 47 48 49 49 50 50 50 50 50 50 50 50 50 50 50
32 33 33 34 34 35 35 36 36 37 38 38 39 39 40 40 40 41 41 42 43 43 44 44 45 46 46 47 47 47 48 49 49 49 49 49 49 49 49 50 50 50 50 49
33 34 34 34 35 35 35 36 37 37 38 39 39 40 40 41 41 41 42 42 43 43 44 45 46 46 46 46 47 47 48 48 48 48 48 49 48 49 49 49 49 49 49 49
34 35 36 36 36 36 36 37 38 39 39 39 40 40 40 40 41 41 42 42 43 43 44 44 44 45 45 46 46 47 47 47 48 48 48 48 48 48 48 48 48 48 49 49
Wind_Direction
212 211 211 211 211 212 215 215 216 216 217 214 216 218 219 217 217 219 221 225 229 233 235 237 242 247 254 259 262 267 271 275 279 282 284 287 290 293 295 298 301 303 304 305
216 216 218 217 219 220 220 218 219 220 217 218 221 223 222 221 222 224 226 228 231 232 236 243 248 254 260 264 266 270 274 277 280 283 285 286 288 291 294 295 297 299 300 300
224 222 226 226 227 229 228 224 224 224 223 223 224 226 225 223 223 223 225 229 231 236 243 249 255 260 264 267 271 274 277 280 282 284 285 287 289 291 293 295 296 297 298 298
231 229 231 232 232 233 232 229 227 227 228 228 228 227 227 227 227 228 230 234 239 245 249 255 260 265 267 271 275 278 280 282 283 285 286 287 290 292 294 295 295 296 297 297
236 237 236 236 236 234 234 232 231 231 233 234 233 232 230 230 232 234 237 240 246 251 256 260 265 270 272 274 278 281 283 284 286 287 286 287 289 291 293 294 294 296 296 295
236 239 238 235 237 235 238 236 235 236 237 237 237 236 236 238 241 240 244 248 252 256 261 265 269 273 275 278 280 282 285 286 287 288 287 287 289 290 291 292 293 294 295 294
238 240 239 236 236 236 238 239 238 238 239 241 241 240 241 242 244 247 249 253 257 260 264 267 271 275 277 280 281 284 286 287 288 288 288 288 290 290 291 291 292 293 294 294
238 239 238 238 239 239 238 237 239 240 241 242 243 246 246 246 248 251 253 256 260 264 268 271 274 277 279 281 282 284 286 287 288 289 289 290 290 290 291 292 292 293 294 294
238 239 241 241 241 239 239 240 242 243 244 246 248 251 252 252 253 254 256 260 263 267 270 273 276 280 282 283 283 284 286 287 289 289 289 290 290 290 291 292 292 293 294 294
239 240 243 244 243 240 241 242 244 245 246 248 251 254 256 256 256 257 259 262 266 270 273 275 278 280 282 283 285 286 287 288 289 290 290 290 291 292 292 292 292 293 294 294
240 241 243 244 245 244 244 245 247 248 249 252 255 256 256 258 259 261 263 266 269 272 275 277 279 281 283 284 285 287 288 289 289 290 290 291 292 293 293 293 294 294 294 294
242 242 244 247 249 249 248 248 248 250 253 255 257 258 260 262 264 266 268 270 272 274 276 278 280 281 283 285 286 288 289 290 290 290 291 292 293 294 294 295 295 295 294 294
242 241 244 246 249 249 249 249 250 251 253 256 259 260 261 263 266 269 271 273 274 275 277 278 280 282 284 286 287 289 289 290 291 292 293 294 295 295 295 295 296 296 295 295
243 243 244 246 249 249 249 251 252 254 256 257 260 261 263 265 267 269 272 274 276 277 279 280 282 283 285 287 288 289 290 290 292 293 294 295 296 296 296 297 297 297 296 296
245 246 248 249 251 251 251 252 253 255 257 259 261 263 265 267 270 272 273 275 277 278 280 281 283 284 286 287 288 289 290 291 292 294 295 296 297 297 298 298 297 297 297 296
248 250 251 253 254 253 253 254 255 256 258 261 263 265 267 269 271 273 275 276 278 279 281 282 284 285 287 288 289 290 290 292 293 294 295 296 297 298 298 298 298 298 297 297
251 252 254 255 255 256 256 256 257 259 260 262 265 267 269 271 272 274 275 276 278 280 282 283 284 286 287 288 289 290 291 292 293 294 296 297 297 298 298 298 298 298 298 298
252 253 255 256 256 256 257 258 259 260 262 264 266 268 269 271 273 275 276 277 279 281 283 284 285 286 287 288 289 290 291 292 294 295 296 297 297 298 298 298 298 298 299 299
255 256 257 258 258 258 259 260 261 263 265 267 268 269 270 272 274 275 277 279 280 282 283 285 286 287 288 288 290 291 292 293 294 295 296 296 297 297 298 298 298 299 299 299
257 258 258 259 259 260 260 261 263 264 266 267 269 270 272 273 274 276 278 280 281 282 284 285 287 288 288 289 290 292 293 294 295 296 296 296 297 298 298 299 299 300 300 300
258 259 259 259 260 261 262 262 263 265 266 268 269 271 273 274 275 277 278 280 282 283 284 286 287 287 288 289 291 292 293 295 295 296 296 297 298 299 299 300 300 300 300 300
258 259 259 260 261 261 262 263 264 266 267 269 271 272 274 275 276 278 279 281 282 284 285 286 287 288 289 290 291 292 294 295 296 297 298 298 299 300 301 301 301 301 301 301
258 259 260 260 261 261 262 263 264 266 268 269 271 273 275 276 277 279 280 282 283 284 285 287 288 289 291 291 292 293 295 296 297 298 299 300 301 301 302 302 302 302 302 302
258 259 260 261 262 264 265 265 266 267 268 270 272 273 275 277 278 280 281 282 283 285 286 288 289 290 291 292 293 294 295 297 298 299 300 301 301 302 302 302 302 302 302 303
259 260 261 263 265 266 266 266 267 269 270 272 273 275 276 277 278 280 282 283 285 286 288 289 290 291 292 293 294 295 296 298 299 300 301 301 302 302 302 303 303 303 302 303
261 261 262 263 265 266 266 267 269 271 272 273 274 275 277 278 279 281 282 284 285 286 288 289 290 291 292 293 294 296 297 299 300 300 301 302 303 303 304 304 304 304 304 304
263 263 264 264 266 267 268 269 270 272 273 273 273 275 277 279 281 282 283 284 286 287 288 290 291 292 293 294 296 297 298 298 300 300 301 302 303 304 304 305 305 305 305 305
Height
5828 5829 5830 5832 5833 5835 5836 5837 5839 5841 5842 5843 5844 5846 5847 5848 5850 5851 5853 5854 5855 5856 5857 5858 5859 5859 5859 5859 5859 5858 5858 5858 5857 5857 5857 5856 5855 5854 5853 5852 5850 5848 5847 5845
5826 5827 5828 5830 5831 5832 5834 5835 5837 5838 5840 5841 5842 5844 5845 5846 5847 5849 5850 5851 5852 5853 5854 5855 5856 5856 5856 5855 5855 5854 5854 5854 5853 5853 5852 5852 5851 5850 5848 5847 5846 5844 5842 5840
5824 5825 5826 5828 5830 5831 5832 5833 5835 5836 5838 5839 5840 5841 5842 5844 5845 5846 5848 5849 5850 5851 5851 5852 5852 5852 5852 5852 5851 5851 5850 5849 5848 5848 5847 5847 5846 5845 5843 5842 5841 5839 5837 5835
5821 5823 5824 5828 5827 5828 5829 5830 5832 5833 5834 5836 5837 5838 5840 5841 5842 5844 5845 5846 5847 5848 5848 5848 5848 5848 5848 5848 5847 5846 5845 5844 5843 5843 5842 5841 5840 5839 5838 5836 5835 5833 5831 5828
5818 5819 5821 5823 5824 5825 5826 5827 5829 5830 5831 5833 5834 5835 5837 5838 5839 5841 5842 5843 5843 5844 5844 5845 5845 5844 5844 5843 5843 5842 5840 5839 5838 5837 5836 5835 5834 5833 5831 5829 5828 5825 5823 5821
5814 5816 5818 5821 5821 5821 5824 5824 5826 5827 5828 5829 5831 5832 5834 5835 5836 5837 5838 5839 5840 5840 5840 5840 5840 5840 5839 5838 5838 5837 5835 5834 5833 5832 5830 5829 5828 5826 5824 5822 5820 5818 5816 5813
5810 5811 5814 5816 5817 5819 5821 5822 5822 5823 5824 5826 5827 5829 5830 5831 5832 5833 5834 5835 5835 5836 5836 5836 5836 5835 5834 5833 5832 5831 5830 5828 5827 5825 5824 5822 5820 5818 5816 5814 5812 5810 5807 5805
5806 5808 5812 5811 5813 5815 5816 5817 5818 5819 5821 5822 5823 5824 5825 5826 5828 5829 5830 5830 5831 5831 5831 5831 5830 5830 5829 5828 5826 5825 5824 5822 5820 5818 5817 5815 5813 5810 5808 5806 5804 5801 5799 5796
5802 5805 5805 5807 5808 5810 5811 5813 5814 5815 5817 5818 5819 5820 5821 5822 5823 5824 5824 5825 5825 5825 5825 5825 5824 5823 5822 5821 5820 5818 5817 5815 5813 5811 5809 5807 5804 5802 5799 5797 5794 5791 5789 5786
5796 5798 5800 5801 5803 5805 5806 5808 5809 5811 5812 5813 5814 5815 5816 5817 5817 5818 5819 5819 5819 5819 5819 5818 5817 5816 5815 5814 5812 5810 5809 5807 5805 5802 5800 5798 5795 5793 5790 5787 5784 5781 5778 5774
5790 5793 5794 5796 5798 5799 5801 5802 5804 5805 5807 5808 5809 5810 5811 5811 5812 5812 5813 5813 5813 5812 5812 5811 5810 5809 5808 5806 5804 5802 5800 5798 5796 5793 5791 5788 5786 5783 5779 5776 5772 5769 5766 5762
5785 5787 5788 5790 5792 5794 5795 5797 5798 5799 5801 5802 5803 5803 5804 5805 5805 5806 5806 5806 5805 5805 5804 5803 5802 5801 5799 5797 5796 5794 5791 5789 5786 5784 5781 5778 5775 5772 5768 5764 5761 5756 5752 5749
5778 5779 5781 5783 5785 5787 5789 5790 5792 5793 5794 5795 5796 5797 5797 5798 5798 5798 5798 5798 5798 5797 5796 5795 5793 5792 5790 5788 5786 5784 5781 5779 5776 5773 5770 5767 5763 5760 5756 5753 5748 5744 5740 5735
5770 5772 5774 5776 5778 5780 5782 5783 5785 5786 5787 5788 5789 5790 5790 5791 5791 5790 5790 5790 5789 5788 5787 5786 5784 5783 5781 5779 5776 5774 5771 5768 5765 5762 5758 5755 5751 5747 5743 5739 5736 5731 5727 5722
5763 5765 5767 5769 5771 5773 5774 5776 5777 5779 5780 5781 5782 5782 5783 5783 5782 5782 5781 5781 5780 5779 5777 5776 5774 5773 5770 5768 5765 5763 5760 5757 5753 5750 5746 5742 5738 5734 5730 5725 5721 5717 5713 5709
5755 5757 5759 5761 5763 5765 5766 5768 5769 5770 5771 5772 5773 5774 5774 5774 5773 5773 5772 5771 5770 5769 5767 5765 5764 5761 5759 5757 5754 5751 5748 5745 5741 5738 5734 5730 5725 5721 5716 5712 5707 5702 5698 5693
5747 5749 5751 5753 5755 5756 5758 5759 5760 5761 5762 5763 5764 5764 5764 5764 5763 5763 5762 5761 5759 5758 5756 5754 5752 5750 5747 5745 5742 5739 5736 5733 5729 5725 5720 5716 5711 5707 5702 5697 5693 5688 5683 5677
5738 5740 5742 5744 5745 5747 5748 5749 5750 5752 5753 5753 5754 5754 5754 5753 5753 5752 5751 5750 5748 5746 5745 5743 5740 5738 5735 5732 5729 5726 5723 5719 5715 5711 5706 5702 5697 5692 5687 5682 5677 5672 5667 5662
5729 5730 5732 5734 5735 5736 5738 5739 5740 5741 5742 5743 5743 5743 5743 5742 5741 5740 5739 5738 5736 5734 5732 5730 5727 5725 5722 5719 5716 5713 5709 5705 5701 5696 5692 5687 5682 5677 5672 5667 5662 5656 5651 5645
5719 5720 5722 5724 5725 5726 5727 5728 5729 5730 5731 5731 5731 5731 5731 5730 5729 5728 5727 5725 5723 5722 5719 5717 5714 5712 5709 5705 5702 5699 5695 5691 5686 5681 5677 5672 5667 5662 5657 5651 5645 5640 5634 5629
5709 5710 5712 5713 5714 5715 5716 5717 5718 5719 5719 5719 5719 5719 5718 5717 5717 5715 5714 5712 5710 5708 5706 5703 5701 5698 5695 5691 5688 5684 5680 5676 5671 5666 5662 5657 5652 5647 5641 5635 5630 5624 5618 5613
5698 5700 5701 5702 5703 5704 5705 5706 5706 5707 5707 5707 5707 5706 5705 5704 5703 5702 5700 5699 5697 5695 5692 5690 5687 5684 5681 5677 5673 5669 5665 5661 5656 5651 5647 5642 5636 5631 5626 5620 5614 5608 5602 5597
5687 5689 5690 5691 5692 5692 5693 5694 5694 5695 5695 5694 5694 5693 5693 5691 5690 5689 5688 5686 5683 5681 5679 5676 5673 5670 5666 5663 5659 5655 5651 5646 5642 5637 5632 5627 5622 5616 5610 5605 5599 5593 5588 5582
5676 5678 5679 5680 5680 5681 5682 5682 5682 5682 5682 5682 5681 5680 5679 5678 5677 5675 5674 5672 5670 5668 5665 5662 5659 5656 5652 5648 5645 5641 5637 5632 5627 5623 5618 5612 5607 5601 5596 5590 5585 5579 5573 5567
5665 5666 5667 5668 5669 5669 5670 5670 5670 5670 5670 5669 5668 5667 5666 5665 5664 5662 5660 5658 5656 5654 5651 5648 5645 5642 5638 5635 5631 5627 5622 5618 5613 5608 5603 5598 5593 5587 5582 5576 5570 5564 5559 5553
5654 5655 5656 5657 5657 5657 5658 5658 5658 5658 5657 5656 5656 5655 5654 5652 5651 5649 5647 5645 5643 5640 5637 5635 5631 5628 5624 5621 5617 5613 5608 5604 5599 5594 5589 5584 5579 5573 5568 5562 5556 5550 5544 5539
5642 5643 5644 5644 5645 5645 5645 5645 5645 5645 5644 5644 5643 5642 5640 5639 5638 5636 5634 5632 5630 5627 5624 5621 5618 5614 5611 5607 5603 5599 5595 5590 5586 5581 5576 5571 5565 5560 5554 5548 5542 5536 5531 5525